Flag Weather past 2 weeks in Appleton, Wisconsin, U.S.A.

Now
14 °F

Passing clouds.


Feels Like: 14 °F
Forecast: 14 / 27 °F
Wind: No wind

Location: Appleton / Outagamie

Current Time: Nov 26, 2014 at 3:18:03 AM

Latest Report: Nov 26, 2014 at 2:55 AM


Visibility: 7 mi

Pressure: 30.16 "Hg

Humidity: 100%

Dew point: 14 °F

Location of AppletonLocation

Historic Weather in Appleton — Graph

°F

Appleton temperature yesterday

Maximum temperature yesterday: 25 °F (at 12:15 AM)
Minimum temperature yesterday: 14 °F (at 8:45 PM)
Average temperature yesterday: 21 °F

Past Weeks' High & Low Weather Summary

 TemperatureHumidityPressure
High48 °F (Nov 23, 10:45 AM)100% (Nov 11, 2:15 AM)30.37 "Hg (Nov 11, 2:15 AM)
Low5 °F (Nov 20, 11:55 PM)39% (Nov 21, 2:45 PM)29.03 "Hg (Nov 24, 4:15 AM)
Average23 °F80%29.94 "Hg
* Reported Nov 11 2:15 AM — Nov 26 2:15 AM, Appleton, Weather by CustomWeather, © 2014

Note: Actual official high and low records may vary slightly from our data, if they occured in-between our weather recording intervals... More about our weather records

Advertising

Appleton weather history for previous 24 hours

 ConditionsComfort  
Time TempWeatherWind HumidityBarometerVisibility
2:15 AM
Nov 26
14 °FPassing clouds.3 mph100%30.16 "Hg7 mi
1:55 AM14 °FIce fog.No wind92%30.16 "Hg5 mi
1:35 AM14 °FClear.No wind100%30.16 "Hg7 mi
1:15 AM14 °FClear.3 mph100%30.16 "Hg7 mi
12:55 AM14 °FClear.No wind100%30.16 "Hg10 mi
12:35 AM14 °FClear.5 mph92%30.16 "Hg10 mi
12:15 AM16 °FClear.3 mph93%30.16 "Hg10 mi
11:55 PM
Nov 25
16 °FClear.3 mph100%30.16 "Hg10 mi
11:35 PM16 °FClear.No wind93%30.15 "Hg10 mi
11:15 PM16 °FClear.No wind93%30.15 "Hg7 mi
10:55 PM14 °FClear.No wind100%30.15 "Hg10 mi
10:35 PM16 °FClear.No wind93%30.14 "Hg10 mi
10:15 PM16 °FClear.No wind93%30.14 "Hg10 mi
8:45 PM14 °FClear.3 mph92%30.11 "Hg10 mi
8:02 PM18 °FPassing clouds.3 mph93%30.11 "Hg10 mi
7:45 PM19 °FOvercast.6 mph86%30.11 "Hg10 mi
6:45 PM19 °FOvercast.5 mph86%30.11 "Hg10 mi
4:45 PM21 °FOvercast.5 mph80%30.09 "Hg10 mi
3:45 PM21 °FOvercast.8 mph80%30.08 "Hg10 mi
2:45 PM21 °FOvercast.14 mph80%30.06 "Hg10 mi
1:45 PM21 °FOvercast.7 mph86%30.03 "Hg10 mi
12:45 PM21 °FOvercast.9 mph93%30.02 "Hg10 mi
11:45 AM21 °FOvercast.12 mph86%30.02 "Hg10 mi
10:45 AM21 °FOvercast.12 mph86%30.01 "Hg10 mi
9:45 AM23 °FPartly sunny.13 mph80%29.98 "Hg10 mi
8:45 AM21 °FPartly sunny.9 mph93%29.95 "Hg10 mi
7:45 AM21 °FScattered clouds.10 mph93%29.93 "Hg7 mi
6:45 AM21 °FLight snow. Mostly cloudy.12 mph93%29.90 "Hg5 mi
4:15 AM23 °FLight snow. Overcast.14 mph93%29.82 "Hg4 mi
3:55 AM23 °FLight snow. Mostly cloudy.13 mph93%29.81 "Hg4 mi
3:35 AM23 °FLight snow. Mostly cloudy.13 mph93%29.80 "Hg4 mi
3:15 AM23 °FLight snow. Overcast.13 mph93%29.80 "Hg3 mi
Weather by CustomWeather, © 2014

See weather overviewHow to use our weather pages